Location: Natural Bridges National Monument
(37.6093°N, 109.9767°W)
Time: 18:55:48
(UTC-07:00)

Cosmos 1727 Rocket - Visible Passes

Search period start: 22 November 2014 00:00
Search period end: 02 December 2014 00:00
Orbit: 961 x 997 km, 82.9° (Epoch: 22 November)

Date Brightness Start Highest point End Pass type
(mag) Time Alt. Az. Time Alt. Az. Time Alt. Az.
29 Nov 6.1 19:10:47 10° N 19:11:00 11° N 19:11:00 11° N visible
30 Nov 5.9 19:36:51 10° N 19:38:01 16° N 19:38:01 16° N visible
01 Dec 5.7 18:19:17 10° NNE 18:20:31 14° NE 18:20:31 14° NE visible
01 Dec 5.8 20:03:20 10° NNW 20:05:21 22° NNW 20:05:21 22° NNW visible
